Time,TemperatureF,DewpointF,PressureIn,WindDirection,WindDirectionDegrees,WindSpeedMPH,WindSpeedGustMPH,Humidity,HourlyPrecipIn,Conditions,Clouds,dailyrainin,SoftwareType,DateUTC
2013-05-18 00:00:00,66.6,62.3,29.77,SE,146,8.0,11.0,86,0.00,,,0.27,Wunderground v.1.15,2013-05-18 05:00:00,
2013-05-18 00:02:00,66.5,62.2,29.77,SE,132,8.0,11.0,86,0.00,,,0.27,Wunderground v.1.15,2013-05-18 05:02:00,
2013-05-18 00:04:00,66.6,62.6,29.77,SE,142,8.0,11.0,87,0.00,,,0.00,Wunderground v.1.15,2013-05-18 05:04:00,
2013-05-18 00:06:00,66.6,62.3,29.77,SE,132,8.0,11.0,86,0.00,,,0.00,Wunderground v.1.15,2013-05-18 05:06:00,
2013-05-18 00:12:00,66.6,62.3,29.78,SE,132,8.0,8.0,86,0.00,,,0.00,Wunderground v.1.15,2013-05-18 05:12:00,
2013-05-18 00:16:00,66.6,62.3,29.78,SE,142,8.0,9.0,86,0.00,,,0.00,Wunderground v.1.15,2013-05-18 05:16:00,
2013-05-18 00:18:00,66.6,62.3,29.78,SE,139,7.0,9.0,86,0.00,,,0.00,Wunderground v.1.15,2013-05-18 05:18:00,
2013-05-18 00:20:00,66.5,62.5,29.78,SE,129,8.0,8.0,87,0.00,,,0.00,Wunderground v.1.15,2013-05-18 05:20:00,
2013-05-18 00:22:00,66.4,62.4,29.78,SE,146,8.0,8.0,87,0.00,,,0.00,Wunderground v.1.15,2013-05-18 05:22:00,
2013-05-18 00:28:00,66.4,62.4,29.78,SE,132,8.0,10.0,87,0.00,,,0.00,Wunderground v.1.15,2013-05-18 05:28:00,
2013-05-18 00:30:00,66.4,62.4,29.78,SSE,152,8.0,8.0,87,0.00,,,0.00,Wunderground v.1.15,2013-05-18 05:30:00,
2013-05-18 00:32:00,66.3,62.3,29.78,SE,145,8.0,9.0,87,0.00,,,0.00,Wunderground v.1.15,2013-05-18 05:32:00,
2013-05-18 00:36:00,66.3,62.3,29.78,SE,127,8.0,10.0,87,0.00,,,0.00,Wunderground v.1.15,2013-05-18 05:36:00,
2013-05-18 00:40:00,66.3,62.3,29.78,SE,131,8.0,8.0,87,0.00,,,0.00,Wunderground v.1.15,2013-05-18 05:40:00,
2013-05-18 00:42:00,66.3,62.0,29.78,SE,146,9.0,9.0,86,0.00,,,0.00,Wunderground v.1.15,2013-05-18 05:42:00,
2013-05-18 00:44:00,66.4,62.1,29.78,SE,134,9.0,11.0,86,0.00,,,0.00,Wunderground v.1.15,2013-05-18 05:44:00,
2013-05-18 00:46:00,66.5,62.2,29.78,SE,143,9.0,11.0,86,0.00,,,0.00,Wunderground v.1.15,2013-05-18 05:46:00,
2013-05-18 00:48:00,66.6,62.3,29.78,SE,145,9.0,11.0,86,0.00,,,0.00,Wunderground v.1.15,2013-05-18 05:48:00,
2013-05-18 00:50:00,66.6,62.3,29.78,SE,139,9.0,9.0,86,0.00,,,0.00,Wunderground v.1.15,2013-05-18 05:50:00,
2013-05-18 00:52:00,66.7,62.4,29.78,SSE,148,9.0,11.0,86,0.00,,,0.00,Wunderground v.1.15,2013-05-18 05:52:00,
2013-05-18 00:58:00,66.9,62.2,29.77,ESE,122,8.0,11.0,85,0.00,,,0.00,Wunderground v.1.15,2013-05-18 05:58:00,
2013-05-18 01:00:00,67.1,62.4,29.78,SSE,148,9.0,9.0,85,0.00,,,0.00,Wunderground v.1.15,2013-05-18 06:00:00,
2013-05-18 01:02:00,67.1,62.1,29.78,SSE,153,9.0,12.0,84,0.00,,,0.00,Wunderground v.1.15,2013-05-18 06:02:00,
2013-05-18 01:06:00,67.1,62.1,29.78,SSE,153,9.0,12.0,84,0.00,,,0.00,Wunderground v.1.15,2013-05-18 06:06:00,
2013-05-18 01:08:00,67.2,62.2,29.78,SSE,153,9.0,12.0,84,0.00,,,0.00,Wunderground v.1.15,2013-05-18 06:08:00,
2013-05-18 01:10:00,67.2,62.2,29.78,SSE,167,8.0,8.0,84,0.00,,,0.00,Wunderground v.1.15,2013-05-18 06:10:00,
2013-05-18 01:12:00,67.1,62.1,29.78,SSE,155,8.0,12.0,84,0.00,,,0.00,Wunderground v.1.15,2013-05-18 06:12:00,
2013-05-18 01:14:00,67.1,62.1,29.78,SE,131,8.0,12.0,84,0.00,,,0.00,Wunderground v.1.15,2013-05-18 06:14:00,
2013-05-18 01:16:00,67.1,62.1,29.78,SSE,148,8.0,12.0,84,0.00,,,0.00,Wunderground v.1.15,2013-05-18 06:16:00,
2013-05-18 01:20:00,67.0,62.0,29.78,SSE,164,8.0,8.0,84,0.00,,,0.00,Wunderground v.1.15,2013-05-18 06:20:00,
2013-05-18 01:22:00,66.9,61.9,29.78,SE,139,8.0,12.0,84,0.00,,,0.00,Wunderground v.1.15,2013-05-18 06:22:00,
2013-05-18 01:26:00,66.9,61.9,29.78,SSE,148,8.0,12.0,84,0.00,,,0.00,Wunderground v.1.15,2013-05-18 06:26:00,
2013-05-18 01:28:00,66.8,61.8,29.78,SSE,165,7.0,12.0,84,0.00,,,0.00,Wunderground v.1.15,2013-05-18 06:28:00,
2013-05-18 01:32:00,66.7,62.0,29.78,South,171,7.0,12.0,85,0.00,,,0.00,Wunderground v.1.15,2013-05-18 06:32:00,
2013-05-18 01:34:00,66.6,61.9,29.78,SSE,155,7.0,12.0,85,0.00,,,0.00,Wunderground v.1.15,2013-05-18 06:34:00,
2013-05-18 01:36:00,66.6,61.9,29.78,SE,143,7.0,12.0,85,0.00,,,0.00,Wunderground v.1.15,2013-05-18 06:36:00,
2013-05-18 01:38:00,66.6,61.9,29.78,SSE,155,6.0,12.0,85,0.00,,,0.00,Wunderground v.1.15,2013-05-18 06:38:00,
2013-05-18 01:42:00,66.5,61.8,29.78,SE,141,6.0,12.0,85,0.00,,,0.00,Wunderground v.1.15,2013-05-18 06:42:00,
2013-05-18 01:44:00,66.4,61.8,29.78,SSE,163,6.0,12.0,85,0.00,,,0.00,Wunderground v.1.15,2013-05-18 06:44:00,
2013-05-18 01:46:00,66.4,61.8,29.78,SSE,150,6.0,12.0,85,0.00,,,0.00,Wunderground v.1.15,2013-05-18 06:46:00,
2013-05-18 01:50:00,66.2,61.9,29.79,SE,142,6.0,6.0,86,0.00,,,0.00,Wunderground v.1.15,2013-05-18 06:50:00,
2013-05-18 01:52:00,66.2,61.9,29.79,SSE,168,5.0,12.0,86,0.00,,,0.00,Wunderground v.1.15,2013-05-18 06:52:00,
2013-05-18 01:54:00,66.1,61.8,29.79,SSE,165,5.0,12.0,86,0.00,,,0.00,Wunderground v.1.15,2013-05-18 06:54:00,
2013-05-18 01:58:00,66.0,61.7,29.79,SSE,162,5.0,12.0,86,0.00,,,0.00,Wunderground v.1.15,2013-05-18 06:58:00,
2013-05-18 02:00:00,65.9,61.6,29.79,SSE,148,4.0,4.0,86,0.00,,,0.00,Wunderground v.1.15,2013-05-18 07:00:00,
2013-05-18 02:02:00,65.9,61.9,29.79,SSE,156,4.0,5.0,87,0.00,,,0.00,Wunderground v.1.15,2013-05-18 07:02:00,
2013-05-18 02:04:00,65.8,61.8,29.79,SSE,159,4.0,12.0,87,0.00,,,0.00,Wunderground v.1.15,2013-05-18 07:04:00,
2013-05-18 02:06:00,65.8,61.8,29.79,SSE,159,4.0,12.0,87,0.00,,,0.00,Wunderground v.1.15,2013-05-18 07:06:00,
2013-05-18 02:08:00,65.7,61.7,29.79,SSE,158,4.0,12.0,87,0.00,,,0.00,Wunderground v.1.15,2013-05-18 07:08:00,
2013-05-18 02:10:00,65.6,61.6,29.79,SSE,168,4.0,12.0,87,0.00,,,0.00,Wunderground v.1.15,2013-05-18 07:10:00,
2013-05-18 02:14:00,65.5,61.5,29.79,SSE,153,4.0,12.0,87,0.00,,,0.00,Wunderground v.1.15,2013-05-18 07:14:00,
2013-05-18 02:16:00,65.5,61.9,29.79,SSE,159,4.0,12.0,88,0.00,,,0.00,Wunderground v.1.15,2013-05-18 07:16:00,
2013-05-18 02:20:00,65.5,61.9,29.79,SSE,162,4.0,4.0,88,0.00,,,0.00,Wunderground v.1.15,2013-05-18 07:20:00,
2013-05-18 02:22:00,65.5,61.9,29.79,South,170,4.0,5.0,88,0.00,,,0.00,Wunderground v.1.15,2013-05-18 07:22:00,
2013-05-18 02:24:00,65.4,61.8,29.79,SE,141,4.0,12.0,88,0.00,,,0.00,Wunderground v.1.15,2013-05-18 07:24:00,
2013-05-18 02:28:00,65.4,61.8,29.79,SSE,155,5.0,12.0,88,0.00,,,0.00,Wunderground v.1.15,2013-05-18 07:28:00,
2013-05-18 02:32:00,65.3,61.7,29.79,South,179,5.0,12.0,88,0.00,,,0.00,Wunderground v.1.15,2013-05-18 07:32:00,
2013-05-18 02:34:00,65.3,61.7,29.79,SSE,149,5.0,12.0,88,0.00,,,0.00,Wunderground v.1.15,2013-05-18 07:34:00,
2013-05-18 02:36:00,65.3,61.7,29.78,SE,145,5.0,12.0,88,0.00,,,0.00,Wunderground v.1.15,2013-05-18 07:36:00,
2013-05-18 02:40:00,65.2,61.6,29.78,SSE,160,5.0,12.0,88,0.00,,,0.00,Wunderground v.1.15,2013-05-18 07:40:00,
2013-05-18 02:44:00,65.2,61.6,29.78,SSW,193,5.0,12.0,88,0.00,,,0.00,Wunderground v.1.15,2013-05-18 07:44:00,
2013-05-18 02:48:00,65.2,61.2,29.78,SSE,155,6.0,12.0,87,0.00,,,0.00,Wunderground v.1.15,2013-05-18 07:48:00,
2013-05-18 02:50:00,65.2,61.6,29.78,SSE,155,5.0,12.0,88,0.00,,,0.00,Wunderground v.1.15,2013-05-18 07:50:00,
2013-05-18 02:56:00,65.1,61.5,29.77,SSE,148,6.0,12.0,88,0.00,,,0.00,Wunderground v.1.15,2013-05-18 07:56:00,
2013-05-18 02:58:00,65.0,61.4,29.77,SE,141,6.0,12.0,88,0.00,,,0.00,Wunderground v.1.15,2013-05-18 07:58:00,
2013-05-18 03:00:00,65.0,61.4,29.77,SSE,152,6.0,12.0,88,0.00,,,0.00,Wunderground v.1.15,2013-05-18 08:00:00,
2013-05-18 03:04:00,65.0,61.4,29.77,South,172,6.0,12.0,88,0.00,,,0.00,Wunderground v.1.15,2013-05-18 08:04:00,
2013-05-18 03:08:00,65.0,61.4,29.77,SE,134,6.0,12.0,88,0.00,,,0.00,Wunderground v.1.15,2013-05-18 08:08:00,
2013-05-18 03:10:00,65.0,61.4,29.77,SE,139,6.0,12.0,88,0.00,,,0.00,Wunderground v.1.15,2013-05-18 08:10:00,
2013-05-18 03:12:00,65.0,61.4,29.76,SSE,158,7.0,12.0,88,0.00,,,0.00,Wunderground v.1.15,2013-05-18 08:12:00,
2013-05-18 03:14:00,64.9,61.3,29.76,SE,136,7.0,12.0,88,0.00,,,0.00,Wunderground v.1.15,2013-05-18 08:14:00,
2013-05-18 03:16:00,64.9,61.3,29.76,SE,141,7.0,12.0,88,0.00,,,0.00,Wunderground v.1.15,2013-05-18 08:16:00,
2013-05-18 03:20:00,64.9,61.3,29.77,SE,143,7.0,7.0,88,0.00,,,0.00,Wunderground v.1.15,2013-05-18 08:20:00,
2013-05-18 03:22:00,64.9,61.3,29.77,SSE,149,7.0,12.0,88,0.00,,,0.00,Wunderground v.1.15,2013-05-18 08:22:00,
2013-05-18 03:24:00,64.9,61.3,29.77,SE,141,7.0,12.0,88,0.00,,,0.00,Wunderground v.1.15,2013-05-18 08:24:00,
2013-05-18 03:26:00,64.9,61.3,29.77,ESE,117,7.0,12.0,88,0.00,,,0.00,Wunderground v.1.15,2013-05-18 08:26:00,
2013-05-18 03:30:00,64.9,61.3,29.77,SSE,155,7.0,7.0,88,0.00,,,0.00,Wunderground v.1.15,2013-05-18 08:30:00,
2013-05-18 03:32:00,64.9,61.3,29.77,SSE,162,6.0,12.0,88,0.00,,,0.00,Wunderground v.1.15,2013-05-18 08:32:00,
2013-05-18 03:34:00,64.8,61.2,29.77,SSE,158,6.0,12.0,88,0.00,,,0.00,Wunderground v.1.15,2013-05-18 08:34:00,
2013-05-18 03:36:00,64.8,61.2,29.77,SSE,160,6.0,12.0,88,0.00,,,0.00,Wunderground v.1.15,2013-05-18 08:36:00,
2013-05-18 03:42:00,64.7,61.1,29.77,SSE,148,6.0,12.0,88,0.00,,,0.00,Wunderground v.1.15,2013-05-18 08:42:00,
2013-05-18 03:44:00,64.7,61.1,29.77,SE,142,6.0,12.0,88,0.00,,,0.00,Wunderground v.1.15,2013-05-18 08:44:00,
2013-05-18 03:46:00,64.7,61.1,29.78,SSE,168,6.0,12.0,88,0.00,,,0.00,Wunderground v.1.15,2013-05-18 08:46:00,
2013-05-18 03:48:00,64.7,61.1,29.78,SSE,165,6.0,12.0,88,0.00,,,0.00,Wunderground v.1.15,2013-05-18 08:48:00,
2013-05-18 03:50:00,64.6,61.3,29.77,SE,142,5.0,5.0,89,0.00,,,0.00,Wunderground v.1.15,2013-05-18 08:50:00,
2013-05-18 03:54:00,64.6,61.3,29.78,SE,136,4.0,12.0,89,0.00,,,0.00,Wunderground v.1.15,2013-05-18 08:54:00,
2013-05-18 03:56:00,64.5,61.2,29.77,South,170,4.0,12.0,89,0.00,,,0.00,Wunderground v.1.15,2013-05-18 08:56:00,
2013-05-18 03:58:00,64.4,61.1,29.77,SE,146,4.0,12.0,89,0.00,,,0.00,Wunderground v.1.15,2013-05-18 08:58:00,
2013-05-18 04:02:00,64.3,61.0,29.77,SE,128,4.0,12.0,89,0.00,,,0.00,Wunderground v.1.15,2013-05-18 09:02:00,
2013-05-18 04:04:00,64.3,61.0,29.77,SSE,159,5.0,12.0,89,0.00,,,0.00,Wunderground v.1.15,2013-05-18 09:04:00,
2013-05-18 04:08:00,64.2,60.9,29.77,SE,132,5.0,12.0,89,0.00,,,0.00,Wunderground v.1.15,2013-05-18 09:08:00,
2013-05-18 04:10:00,64.2,60.9,29.77,SSE,160,6.0,6.0,89,0.00,,,0.00,Wunderground v.1.15,2013-05-18 09:10:00,
2013-05-18 04:14:00,64.1,60.8,29.77,South,172,5.0,12.0,89,0.00,,,0.00,Wunderground v.1.15,2013-05-18 09:14:00,
2013-05-18 04:16:00,64.1,60.8,29.77,South,177,4.0,12.0,89,0.00,,,0.00,Wunderground v.1.15,2013-05-18 09:16:00,
2013-05-18 04:18:00,64.0,60.7,29.78,SW,217,4.0,12.0,89,0.00,,,0.00,Wunderground v.1.15,2013-05-18 09:18:00,
2013-05-18 04:22:00,63.9,60.6,29.78,South,190,4.0,12.0,89,0.00,,,0.00,Wunderground v.1.15,2013-05-18 09:22:00,
2013-05-18 04:24:00,63.8,60.5,29.78,SE,142,4.0,12.0,89,0.00,,,0.00,Wunderground v.1.15,2013-05-18 09:24:00,
2013-05-18 04:28:00,63.6,60.3,29.78,SSE,166,4.0,12.0,89,0.00,,,0.00,Wunderground v.1.15,2013-05-18 09:28:00,
2013-05-18 04:29:00,63.5,60.2,29.78,SW,219,4.0,4.0,89,0.00,,,0.00,Wunderground v.1.15,2013-05-18 09:29:00,
2013-05-18 04:32:00,63.5,60.2,29.78,SW,221,4.0,12.0,89,0.00,,,0.00,Wunderground v.1.15,2013-05-18 09:32:00,
2013-05-18 04:34:00,63.5,60.2,29.78,SE,136,4.0,12.0,89,0.00,,,0.00,Wunderground v.1.15,2013-05-18 09:34:00,
2013-05-18 04:36:00,63.6,60.3,29.78,SSE,160,4.0,12.0,89,0.00,,,0.00,Wunderground v.1.15,2013-05-18 09:36:00,
2013-05-18 04:38:00,63.5,60.2,29.79,South,169,4.0,12.0,89,0.00,,,0.00,Wunderground v.1.15,2013-05-18 09:38:00,
2013-05-18 04:40:00,63.5,60.2,29.79,SSW,200,3.0,3.0,89,0.00,,,0.00,Wunderground v.1.15,2013-05-18 09:40:00,
2013-05-18 04:44:00,63.4,60.4,29.79,SSW,195,3.0,12.0,90,0.00,,,0.00,Wunderground v.1.15,2013-05-18 09:44:00,
2013-05-18 04:46:00,63.3,60.3,29.79,SSE,149,3.0,12.0,90,0.00,,,0.00,Wunderground v.1.15,2013-05-18 09:46:00,
2013-05-18 04:48:00,63.3,60.3,29.78,SSE,153,3.0,12.0,90,0.00,,,0.00,Wunderground v.1.15,2013-05-18 09:48:00,
2013-05-18 04:49:00,63.2,60.2,29.79,SSE,166,4.0,4.0,90,0.00,,,0.00,Wunderground v.1.15,2013-05-18 09:49:00,
2013-05-18 04:52:00,63.2,60.2,29.79,SE,125,4.0,5.0,90,0.00,,,0.00,Wunderground v.1.15,2013-05-18 09:52:00,
2013-05-18 04:56:00,63.1,60.1,29.79,SE,131,3.0,12.0,90,0.00,,,0.00,Wunderground v.1.15,2013-05-18 09:56:00,
2013-05-18 04:58:00,63.1,60.1,29.79,SE,129,3.0,12.0,90,0.00,,,0.00,Wunderground v.1.15,2013-05-18 09:58:00,
2013-05-18 05:02:00,63.0,60.0,29.78,SSE,150,3.0,12.0,90,0.00,,,0.00,Wunderground v.1.15,2013-05-18 10:02:00,
2013-05-18 05:06:00,62.9,59.9,29.78,SSE,152,3.0,12.0,90,0.00,,,0.00,Wunderground v.1.15,2013-05-18 10:06:00,
2013-05-18 05:08:00,62.8,59.8,29.78,SSE,159,3.0,12.0,90,0.00,,,0.00,Wunderground v.1.15,2013-05-18 10:08:00,
2013-05-18 05:12:00,62.7,60.0,29.78,South,186,3.0,12.0,91,0.00,,,0.00,Wunderground v.1.15,2013-05-18 10:12:00,
2013-05-18 05:14:00,62.6,59.9,29.78,South,184,3.0,12.0,91,0.00,,,0.00,Wunderground v.1.15,2013-05-18 10:14:00,
2013-05-18 05:16:00,62.6,59.9,29.78,SSE,148,3.0,12.0,91,0.00,,,0.00,Wunderground v.1.15,2013-05-18 10:16:00,
2013-05-18 05:20:00,62.5,59.8,29.78,SE,141,3.0,12.0,91,0.00,,,0.00,Wunderground v.1.15,2013-05-18 10:20:00,
2013-05-18 05:26:00,62.5,60.1,29.77,SSE,162,3.0,12.0,92,0.00,,,0.00,Wunderground v.1.15,2013-05-18 10:26:00,
2013-05-18 05:28:00,62.5,60.1,29.77,SE,143,3.0,12.0,92,0.00,,,0.00,Wunderground v.1.15,2013-05-18 10:28:00,
2013-05-18 05:32:00,62.4,60.0,29.77,SSE,148,4.0,12.0,92,0.00,,,0.00,Wunderground v.1.15,2013-05-18 10:32:00,
2013-05-18 05:34:00,62.4,60.0,29.76,SE,142,4.0,12.0,92,0.00,,,0.00,Wunderground v.1.15,2013-05-18 10:34:00,
2013-05-18 05:38:00,62.5,60.1,29.76,SSE,150,5.0,12.0,92,0.00,,,0.00,Wunderground v.1.15,2013-05-18 10:38:00,
2013-05-18 05:40:00,62.6,60.2,29.76,SSE,155,5.0,12.0,92,0.00,,,0.00,Wunderground v.1.15,2013-05-18 10:40:00,
2013-05-18 05:42:00,62.8,60.4,29.76,SSE,155,5.0,12.0,92,0.00,,,0.00,Wunderground v.1.15,2013-05-18 10:42:00,
2013-05-18 05:46:00,63.0,60.3,29.76,SE,138,5.0,12.0,91,0.00,,,0.00,Wunderground v.1.15,2013-05-18 10:46:00,
2013-05-18 05:48:00,63.1,60.4,29.76,SSE,160,5.0,12.0,91,0.00,,,0.00,Wunderground v.1.15,2013-05-18 10:48:00,
2013-05-18 05:50:00,63.2,60.5,29.76,SSE,153,5.0,12.0,91,0.00,,,0.00,Wunderground v.1.15,2013-05-18 10:50:00,
2013-05-18 05:54:00,63.2,60.5,29.76,SSE,150,5.0,12.0,91,0.00,,,0.00,Wunderground v.1.15,2013-05-18 10:54:00,
2013-05-18 05:56:00,63.3,60.3,29.77,SSE,156,4.0,12.0,90,0.00,,,0.00,Wunderground v.1.15,2013-05-18 10:56:00,
2013-05-18 06:00:00,63.3,60.3,29.77,South,177,4.0,4.0,90,0.00,,,0.00,Wunderground v.1.15,2013-05-18 11:00:00,
2013-05-18 06:02:00,63.3,60.3,29.77,SSE,159,3.0,12.0,90,0.00,,,0.00,Wunderground v.1.15,2013-05-18 11:02:00,
2013-05-18 06:04:00,63.3,60.3,29.77,SSE,155,3.0,12.0,90,0.00,,,0.00,Wunderground v.1.15,2013-05-18 11:04:00,
2013-05-18 06:06:00,63.3,60.3,29.77,South,184,3.0,12.0,90,0.00,,,0.00,Wunderground v.1.15,2013-05-18 11:06:00,
2013-05-18 06:08:00,63.3,60.3,29.78,SSW,194,3.0,12.0,90,0.00,,,0.00,Wunderground v.1.15,2013-05-18 11:08:00,
2013-05-18 06:10:00,63.2,60.2,29.78,SW,233,3.0,3.0,90,0.00,,,0.00,Wunderground v.1.15,2013-05-18 11:10:00,
2013-05-18 06:12:00,63.2,60.2,29.78,SW,226,2.0,12.0,90,0.00,,,0.00,Wunderground v.1.15,2013-05-18 11:12:00,
2013-05-18 06:14:00,63.2,60.2,29.78,SSW,208,2.0,12.0,90,0.00,,,0.00,Wunderground v.1.15,2013-05-18 11:14:00,
2013-05-18 06:16:00,63.1,60.1,29.78,SE,135,2.0,12.0,90,0.00,,,0.00,Wunderground v.1.15,2013-05-18 11:16:00,
2013-05-18 06:20:00,63.0,60.0,29.79,SSW,200,2.0,12.0,90,0.00,,,0.00,Wunderground v.1.15,2013-05-18 11:20:00,
2013-05-18 06:22:00,63.0,60.0,29.79,WSW,239,2.0,12.0,90,0.00,,,0.00,Wunderground v.1.15,2013-05-18 11:22:00,
2013-05-18 06:24:00,62.9,59.9,29.79,SW,219,2.0,12.0,90,0.00,,,0.00,Wunderground v.1.15,2013-05-18 11:24:00,
2013-05-18 06:28:00,62.9,59.9,29.79,SSE,156,2.0,12.0,90,0.00,,,0.00,Wunderground v.1.15,2013-05-18 11:28:00,
2013-05-18 06:30:00,62.9,59.9,29.79,South,177,2.0,12.0,90,0.00,,,0.00,Wunderground v.1.15,2013-05-18 11:30:00,
2013-05-18 06:34:00,62.8,59.8,29.80,South,183,2.0,12.0,90,0.00,,,0.00,Wunderground v.1.15,2013-05-18 11:34:00,
2013-05-18 06:36:00,62.8,59.8,29.79,South,190,2.0,12.0,90,0.00,,,0.00,Wunderground v.1.15,2013-05-18 11:36:00,
2013-05-18 06:40:00,62.8,59.8,29.80,South,176,2.0,12.0,90,0.00,,,0.00,Wunderground v.1.15,2013-05-18 11:40:00,
2013-05-18 06:42:00,62.8,60.1,29.80,WSW,242,2.0,12.0,91,0.00,,,0.00,Wunderground v.1.15,2013-05-18 11:42:00,
2013-05-18 06:44:00,62.8,59.8,29.80,SE,142,2.0,12.0,90,0.00,,,0.00,Wunderground v.1.15,2013-05-18 11:44:00,
2013-05-18 06:46:00,62.8,60.1,29.80,SW,226,2.0,12.0,91,0.00,,,0.00,Wunderground v.1.15,2013-05-18 11:46:00,
2013-05-18 06:52:00,62.7,60.0,29.80,South,170,2.0,12.0,91,0.00,,,0.00,Wunderground v.1.15,2013-05-18 11:52:00,
2013-05-18 06:54:00,62.7,60.0,29.80,South,187,2.0,12.0,91,0.00,,,0.00,Wunderground v.1.15,2013-05-18 11:54:00,
2013-05-18 06:56:00,62.7,60.0,29.80,SSE,166,2.0,12.0,91,0.00,,,0.00,Wunderground v.1.15,2013-05-18 11:56:00,
2013-05-18 07:00:00,62.6,59.9,29.81,SSW,201,2.0,2.0,91,0.00,,,0.00,Wunderground v.1.15,2013-05-18 12:00:00,
2013-05-18 07:02:00,62.6,59.9,29.81,South,173,2.0,3.0,91,0.00,,,0.00,Wunderground v.1.15,2013-05-18 12:02:00,
2013-05-18 07:04:00,62.6,59.9,29.81,SE,136,2.0,12.0,91,0.00,,,0.00,Wunderground v.1.15,2013-05-18 12:04:00,
2013-05-18 07:10:00,62.7,60.0,29.81,South,183,2.0,2.0,91,0.00,,,0.00,Wunderground v.1.15,2013-05-18 12:10:00,
2013-05-18 07:12:00,62.7,60.0,29.81,SSW,207,2.0,3.0,91,0.00,,,0.00,Wunderground v.1.15,2013-05-18 12:12:00,
2013-05-18 07:14:00,62.8,60.1,29.81,SE,142,2.0,12.0,91,0.00,,,0.00,Wunderground v.1.15,2013-05-18 12:14:00,
2013-05-18 07:18:00,62.9,60.2,29.81,SSE,152,2.0,12.0,91,0.00,,,0.00,Wunderground v.1.15,2013-05-18 12:18:00,
2013-05-18 07:20:00,63.0,60.3,29.82,SSE,161,2.0,12.0,91,0.00,,,0.00,Wunderground v.1.15,2013-05-18 12:20:00,
2013-05-18 07:26:00,63.2,60.5,29.82,SSE,150,2.0,12.0,91,0.00,,,0.00,Wunderground v.1.15,2013-05-18 12:26:00,
2013-05-18 07:30:00,63.2,60.5,29.82,SE,141,3.0,12.0,91,0.00,,,0.00,Wunderground v.1.15,2013-05-18 12:30:00,
2013-05-18 07:32:00,63.3,60.9,29.82,SSE,150,3.0,12.0,92,0.00,,,0.00,Wunderground v.1.15,2013-05-18 12:32:00,
2013-05-18 07:36:00,63.5,60.8,29.82,SSE,155,3.0,12.0,91,0.00,,,0.00,Wunderground v.1.15,2013-05-18 12:36:00,
2013-05-18 07:38:00,63.7,61.0,29.81,SSE,153,3.0,12.0,91,0.00,,,0.00,Wunderground v.1.15,2013-05-18 12:38:00,
2013-05-18 07:42:00,63.9,61.2,29.81,SSE,149,3.0,12.0,91,0.00,,,0.00,Wunderground v.1.15,2013-05-18 12:42:00,
2013-05-18 07:44:00,64.1,61.4,29.82,SSE,165,2.0,12.0,91,0.00,,,0.00,Wunderground v.1.15,2013-05-18 12:44:00,
2013-05-18 07:50:00,64.6,61.3,29.82,SSE,156,2.0,12.0,89,0.00,,,0.00,Wunderground v.1.15,2013-05-18 12:50:00,
2013-05-18 07:52:00,64.7,61.4,29.82,SSE,167,2.0,12.0,89,0.00,,,0.00,Wunderground v.1.15,2013-05-18 12:52:00,
2013-05-18 07:54:00,64.9,61.6,29.82,SSE,163,2.0,12.0,89,0.00,,,0.00,Wunderground v.1.15,2013-05-18 12:54:00,
2013-05-18 07:58:00,65.4,61.8,29.82,SW,224,2.0,12.0,88,0.00,,,0.00,Wunderground v.1.15,2013-05-18 12:58:00,
2013-05-18 08:00:00,65.6,61.9,29.82,SSE,162,2.0,12.0,88,0.00,,,0.00,Wunderground v.1.15,2013-05-18 13:00:00,
2013-05-18 08:02:00,65.8,62.1,29.82,SSE,153,2.0,12.0,88,0.00,,,0.00,Wunderground v.1.15,2013-05-18 13:02:00,
2013-05-18 08:04:00,66.0,62.0,29.81,SSE,148,2.0,12.0,87,0.00,,,0.00,Wunderground v.1.15,2013-05-18 13:04:00,
2013-05-18 08:08:00,66.4,62.1,29.81,SSE,149,3.0,12.0,86,0.00,,,0.00,Wunderground v.1.15,2013-05-18 13:08:00,
2013-05-18 08:10:00,66.5,62.2,29.81,SE,124,3.0,12.0,86,0.00,,,0.00,Wunderground v.1.15,2013-05-18 13:10:00,
2013-05-18 08:12:00,66.6,62.3,29.81,SE,142,3.0,12.0,86,0.00,,,0.00,Wunderground v.1.15,2013-05-18 13:12:00,
2013-05-18 08:14:00,66.7,62.4,29.81,SSE,155,3.0,12.0,86,0.00,,,0.00,Wunderground v.1.15,2013-05-18 13:14:00,
2013-05-18 08:18:00,66.9,62.6,29.81,SE,142,4.0,12.0,86,0.00,,,0.00,Wunderground v.1.15,2013-05-18 13:18:00,
2013-05-18 08:28:00,67.5,62.5,29.81,SSE,158,4.0,12.0,84,0.00,,,0.00,Wunderground v.1.15,2013-05-18 13:28:00,
2013-05-18 08:30:00,67.7,62.7,29.81,SE,139,4.0,12.0,84,0.00,,,0.00,Wunderground v.1.15,2013-05-18 13:30:00,
2013-05-18 08:32:00,67.9,62.9,29.81,SSE,156,4.0,12.0,84,0.00,,,0.00,Wunderground v.1.15,2013-05-18 13:32:00,
2013-05-18 08:34:00,68.0,63.0,29.81,SE,141,4.0,12.0,84,0.00,,,0.00,Wunderground v.1.15,2013-05-18 13:34:00,
2013-05-18 08:36:00,68.2,63.2,29.81,SSE,148,4.0,12.0,84,0.00,,,0.00,Wunderground v.1.15,2013-05-18 13:36:00,
2013-05-18 08:38:00,68.3,62.9,29.81,SSE,151,4.0,12.0,83,0.00,,,0.00,Wunderground v.1.15,2013-05-18 13:38:00,
2013-05-18 08:40:00,68.4,63.0,29.81,SE,135,4.0,4.0,83,0.00,,,0.00,Wunderground v.1.15,2013-05-18 13:40:00,
2013-05-18 08:44:00,68.7,63.3,29.81,South,172,4.0,12.0,83,0.00,,,0.00,Wunderground v.1.15,2013-05-18 13:44:00,
2013-05-18 08:50:00,69.0,63.3,29.81,SE,134,4.0,12.0,82,0.00,,,0.00,Wunderground v.1.15,2013-05-18 13:50:00,
2013-05-18 08:54:00,69.1,63.4,29.81,SE,137,4.0,12.0,82,0.00,,,0.00,Wunderground v.1.15,2013-05-18 13:54:00,
2013-05-18 08:56:00,69.1,63.4,29.81,SE,141,5.0,12.0,82,0.00,,,0.00,Wunderground v.1.15,2013-05-18 13:56:00,
2013-05-18 08:58:00,69.1,63.4,29.81,SSE,158,5.0,12.0,82,0.00,,,0.00,Wunderground v.1.15,2013-05-18 13:58:00,
2013-05-18 09:00:00,69.3,63.9,29.81,SE,143,4.0,12.0,83,0.00,,,0.00,Wunderground v.1.15,2013-05-18 14:00:00,
2013-05-18 09:04:00,69.3,63.6,29.81,SE,142,4.0,12.0,82,0.00,,,0.00,Wunderground v.1.15,2013-05-18 14:04:00,
2013-05-18 09:06:00,69.4,63.7,29.81,SE,138,4.0,12.0,82,0.00,,,0.00,Wunderground v.1.15,2013-05-18 14:06:00,
2013-05-18 09:12:00,69.5,63.8,29.81,SSE,148,5.0,12.0,82,0.00,,,0.00,Wunderground v.1.15,2013-05-18 14:12:00,
2013-05-18 09:14:00,69.6,63.9,29.81,South,190,5.0,12.0,82,0.00,,,0.00,Wunderground v.1.15,2013-05-18 14:14:00,
2013-05-18 09:16:00,69.8,64.1,29.81,SSE,165,4.0,12.0,82,0.00,,,0.00,Wunderground v.1.15,2013-05-18 14:16:00,
2013-05-18 09:18:00,70.0,63.9,29.81,SSE,150,4.0,12.0,81,0.00,,,0.00,Wunderground v.1.15,2013-05-18 14:18:00,
2013-05-18 09:20:00,70.0,63.9,29.81,SE,145,4.0,12.0,81,0.00,,,0.00,Wunderground v.1.15,2013-05-18 14:20:00,
2013-05-18 09:22:00,70.1,64.0,29.81,SE,141,4.0,12.0,81,0.00,,,0.00,Wunderground v.1.15,2013-05-18 14:22:00,
2013-05-18 09:26:00,70.3,63.8,29.81,SSE,162,4.0,12.0,80,0.00,,,0.00,Wunderground v.1.15,2013-05-18 14:26:00,
2013-05-18 09:28:00,70.5,64.0,29.81,South,179,4.0,12.0,80,0.00,,,0.00,Wunderground v.1.15,2013-05-18 14:28:00,
2013-05-18 09:34:00,70.8,64.0,29.81,SE,141,4.0,12.0,79,0.00,,,0.00,Wunderground v.1.15,2013-05-18 14:34:00,
2013-05-18 09:36:00,70.9,64.4,29.80,ESE,118,4.0,12.0,80,0.00,,,0.00,Wunderground v.1.15,2013-05-18 14:36:00,
2013-05-18 09:38:00,71.0,64.2,29.80,SSE,148,4.0,12.0,79,0.00,,,0.00,Wunderground v.1.15,2013-05-18 14:38:00,
2013-05-18 09:40:00,71.0,64.2,29.80,SE,136,4.0,12.0,79,0.00,,,0.00,Wunderground v.1.15,2013-05-18 14:40:00,
2013-05-18 09:42:00,71.1,64.3,29.80,SSE,148,4.0,12.0,79,0.00,,,0.00,Wunderground v.1.15,2013-05-18 14:42:00,
2013-05-18 09:44:00,71.4,64.5,29.80,SSE,159,4.0,12.0,79,0.00,,,0.00,Wunderground v.1.15,2013-05-18 14:44:00,
2013-05-18 09:46:00,71.6,64.4,29.80,SE,128,4.0,12.0,78,0.00,,,0.00,Wunderground v.1.15,2013-05-18 14:46:00,
2013-05-18 09:50:00,71.9,64.7,29.80,SSE,166,4.0,4.0,78,0.00,,,0.00,Wunderground v.1.15,2013-05-18 14:50:00,
2013-05-18 09:52:00,72.0,64.0,29.80,South,172,4.0,12.0,76,0.00,,,0.00,Wunderground v.1.15,2013-05-18 14:52:00,
2013-05-18 09:54:00,72.2,64.2,29.80,South,183,3.0,12.0,76,0.00,,,0.00,Wunderground v.1.15,2013-05-18 14:54:00,
2013-05-18 09:58:00,72.5,64.5,29.80,SSE,148,4.0,12.0,76,0.00,,,0.00,Wunderground v.1.15,2013-05-18 14:58:00,
2013-05-18 10:04:00,72.7,64.7,29.80,SSE,160,4.0,12.0,76,0.00,,,0.00,Wunderground v.1.15,2013-05-18 15:04:00,
2013-05-18 10:06:00,72.9,64.9,29.80,SE,145,4.0,12.0,76,0.00,,,0.00,Wunderground v.1.15,2013-05-18 15:06:00,
2013-05-18 10:10:00,73.3,64.9,29.80,SE,136,4.0,12.0,75,0.00,,,0.00,Wunderground v.1.15,2013-05-18 15:10:00,
2013-05-18 10:12:00,73.4,64.6,29.80,SE,135,4.0,12.0,74,0.00,,,0.00,Wunderground v.1.15,2013-05-18 15:12:00,
2013-05-18 10:14:00,73.4,64.6,29.80,SSE,150,4.0,12.0,74,0.00,,,0.00,Wunderground v.1.15,2013-05-18 15:14:00,
2013-05-18 10:20:00,73.6,64.8,29.80,SE,142,4.0,12.0,74,0.00,,,0.00,Wunderground v.1.15,2013-05-18 15:20:00,
2013-05-18 10:22:00,73.6,64.4,29.80,SSE,160,4.0,12.0,73,0.00,,,0.00,Wunderground v.1.15,2013-05-18 15:22:00,
2013-05-18 10:24:00,73.6,64.8,29.80,SE,134,4.0,12.0,74,0.00,,,0.00,Wunderground v.1.15,2013-05-18 15:24:00,
2013-05-18 10:28:00,73.6,64.8,29.80,SSE,160,5.0,12.0,74,0.00,,,0.00,Wunderground v.1.15,2013-05-18 15:28:00,
2013-05-18 10:30:00,73.6,64.8,29.80,SSE,152,5.0,5.0,74,0.00,,,0.00,Wunderground v.1.15,2013-05-18 15:30:00,
2013-05-18 10:32:00,73.7,65.3,29.80,SSE,160,4.0,12.0,75,0.00,,,0.00,Wunderground v.1.15,2013-05-18 15:32:00,
2013-05-18 10:36:00,74.1,64.9,29.80,WSW,247,4.0,12.0,73,0.00,,,0.00,Wunderground v.1.15,2013-05-18 15:36:00,
2013-05-18 10:38:00,74.1,65.3,29.80,South,170,4.0,12.0,74,0.00,,,0.00,Wunderground v.1.15,2013-05-18 15:38:00,
2013-05-18 10:40:00,74.2,65.0,29.80,SSW,211,3.0,3.0,73,0.00,,,0.00,Wunderground v.1.15,2013-05-18 15:40:00,
2013-05-18 10:42:00,74.4,65.2,29.80,South,169,4.0,5.0,73,0.00,,,0.00,Wunderground v.1.15,2013-05-18 15:42:00,
2013-05-18 10:46:00,74.4,65.6,29.79,SE,131,4.0,12.0,74,0.00,,,0.00,Wunderground v.1.15,2013-05-18 15:46:00,
2013-05-18 10:48:00,74.4,65.2,29.79,SE,134,4.0,12.0,73,0.00,,,0.00,Wunderground v.1.15,2013-05-18 15:48:00,
2013-05-18 10:52:00,74.3,65.1,29.79,SE,135,5.0,6.0,73,0.00,,,0.00,Wunderground v.1.15,2013-05-18 15:52:00,
2013-05-18 10:54:00,74.4,65.6,29.79,South,169,5.0,12.0,74,0.00,,,0.00,Wunderground v.1.15,2013-05-18 15:54:00,
2013-05-18 10:56:00,74.4,64.8,29.79,SE,140,5.0,12.0,72,0.00,,,0.00,Wunderground v.1.15,2013-05-18 15:56:00,
2013-05-18 11:00:00,74.4,65.2,29.79,SE,145,5.0,5.0,73,0.00,,,0.00,Wunderground v.1.15,2013-05-18 16:00:00,
2013-05-18 11:04:00,74.4,65.2,29.79,SE,145,5.0,7.0,73,0.00,,,0.00,Wunderground v.1.15,2013-05-18 16:04:00,
2013-05-18 11:06:00,74.4,65.6,29.79,SSE,157,6.0,12.0,74,0.00,,,0.00,Wunderground v.1.15,2013-05-18 16:06:00,
2013-05-18 11:08:00,74.3,65.1,29.79,SE,143,6.0,12.0,73,0.00,,,0.00,Wunderground v.1.15,2013-05-18 16:08:00,
2013-05-18 11:12:00,74.4,66.0,29.79,SE,136,6.0,12.0,75,0.00,,,0.00,Wunderground v.1.15,2013-05-18 16:12:00,
2013-05-18 11:14:00,74.4,66.0,29.79,SW,217,6.0,12.0,75,0.00,,,0.00,Wunderground v.1.15,2013-05-18 16:14:00,
2013-05-18 11:16:00,74.5,65.3,29.79,SSE,153,5.0,12.0,73,0.00,,,0.00,Wunderground v.1.15,2013-05-18 16:16:00,
2013-05-18 11:18:00,74.6,66.1,29.79,SE,139,5.0,12.0,75,0.00,,,0.00,Wunderground v.1.15,2013-05-18 16:18:00,
2013-05-18 11:24:00,74.4,66.0,29.78,SE,143,6.0,12.0,75,0.00,,,0.00,Wunderground v.1.15,2013-05-18 16:24:00,
2013-05-18 11:26:00,74.3,65.5,29.78,SE,136,6.0,12.0,74,0.00,,,0.00,Wunderground v.1.15,2013-05-18 16:26:00,
2013-05-18 11:30:00,74.1,65.7,29.78,SE,131,7.0,7.0,75,0.00,,,0.00,Wunderground v.1.15,2013-05-18 16:30:00,
2013-05-18 11:32:00,74.2,65.4,29.78,SE,145,6.0,12.0,74,0.00,,,0.00,Wunderground v.1.15,2013-05-18 16:32:00,
2013-05-18 11:34:00,74.2,65.8,29.78,SE,141,7.0,12.0,75,0.00,,,0.00,Wunderground v.1.15,2013-05-18 16:34:00,
2013-05-18 11:36:00,74.2,65.8,29.78,SE,145,7.0,12.0,75,0.00,,,0.00,Wunderground v.1.15,2013-05-18 16:36:00,
2013-05-18 11:38:00,74.3,65.1,29.78,SE,125,7.0,12.0,73,0.00,,,0.00,Wunderground v.1.15,2013-05-18 16:38:00,
2013-05-18 11:40:00,74.4,65.6,29.78,SE,131,6.0,12.0,74,0.00,,,0.00,Wunderground v.1.15,2013-05-18 16:40:00,
2013-05-18 11:42:00,74.4,65.6,29.78,SE,135,6.0,12.0,74,0.00,,,0.00,Wunderground v.1.15,2013-05-18 16:42:00,
2013-05-18 11:46:00,74.4,65.6,29.78,SE,131,6.0,12.0,74,0.00,,,0.00,Wunderground v.1.15,2013-05-18 16:46:00,
2013-05-18 11:48:00,74.5,65.3,29.78,SE,135,6.0,12.0,73,0.00,,,0.00,Wunderground v.1.15,2013-05-18 16:48:00,
2013-05-18 11:50:00,74.7,65.1,29.78,SSE,158,6.0,6.0,72,0.00,,,0.00,Wunderground v.1.15,2013-05-18 16:50:00,
2013-05-18 11:54:00,75.2,65.9,29.78,SE,145,6.0,12.0,73,0.00,,,0.00,Wunderground v.1.15,2013-05-18 16:54:00,
2013-05-18 11:56:00,75.3,65.6,29.78,SSE,148,6.0,12.0,72,0.00,,,0.00,Wunderground v.1.15,2013-05-18 16:56:00,
2013-05-18 11:58:00,75.5,66.6,29.77,SE,139,5.0,12.0,74,0.00,,,0.00,Wunderground v.1.15,2013-05-18 16:58:00,
2013-05-18 12:02:00,75.6,65.5,29.77,SE,139,7.0,12.0,71,0.00,,,0.00,Wunderground v.1.15,2013-05-18 17:02:00,
2013-05-18 12:04:00,75.5,65.4,29.76,SE,136,7.0,12.0,71,0.00,,,0.00,Wunderground v.1.15,2013-05-18 17:04:00,
2013-05-18 12:08:00,75.4,65.7,29.76,SE,126,8.0,12.0,72,0.00,,,0.00,Wunderground v.1.15,2013-05-18 17:08:00,
2013-05-18 12:10:00,75.3,65.2,29.76,SE,134,8.0,10.0,71,0.00,,,0.00,Wunderground v.1.15,2013-05-18 17:10:00,
2013-05-18 12:12:00,75.3,65.2,29.76,SE,138,9.0,10.0,71,0.00,,,0.00,Wunderground v.1.15,2013-05-18 17:12:00,
2013-05-18 12:16:00,75.4,64.9,29.76,SE,139,8.0,10.0,70,0.00,,,0.00,Wunderground v.1.15,2013-05-18 17:16:00,
2013-05-18 12:18:00,75.5,65.4,29.76,SSE,152,9.0,11.0,71,0.00,,,0.00,Wunderground v.1.15,2013-05-18 17:18:00,
2013-05-18 12:20:00,75.5,65.4,29.76,ESE,120,9.0,9.0,71,0.00,,,0.00,Wunderground v.1.15,2013-05-18 17:20:00,
2013-05-18 12:22:00,75.6,65.5,29.76,SSE,158,8.0,9.0,71,0.00,,,0.00,Wunderground v.1.15,2013-05-18 17:22:00,
2013-05-18 12:26:00,75.6,64.7,29.76,SE,143,8.0,9.0,69,0.00,,,0.00,Wunderground v.1.15,2013-05-18 17:26:00,
2013-05-18 12:28:00,75.5,65.0,29.76,SE,136,8.0,9.0,70,0.00,,,0.00,Wunderground v.1.15,2013-05-18 17:28:00,
2013-05-18 12:30:00,75.4,64.1,29.76,ESE,118,8.0,9.0,68,0.00,,,0.00,Wunderground v.1.15,2013-05-18 17:30:00,
2013-05-18 12:34:00,75.3,64.4,29.76,SSE,151,8.0,11.0,69,0.00,,,0.00,Wunderground v.1.15,2013-05-18 17:34:00,
2013-05-18 12:36:00,75.4,64.9,29.76,SE,145,8.0,11.0,70,0.00,,,0.00,Wunderground v.1.15,2013-05-18 17:36:00,
2013-05-18 12:38:00,75.5,64.6,29.76,SE,145,8.0,11.0,69,0.00,,,0.00,Wunderground v.1.15,2013-05-18 17:38:00,
2013-05-18 12:42:00,75.7,64.8,29.75,SSE,153,8.0,11.0,69,0.00,,,0.00,Wunderground v.1.15,2013-05-18 17:42:00,
2013-05-18 12:44:00,75.6,65.1,29.75,SE,141,9.0,11.0,70,0.00,,,0.00,Wunderground v.1.15,2013-05-18 17:44:00,
2013-05-18 12:46:00,75.7,65.2,29.75,SE,138,8.0,11.0,70,0.00,,,0.00,Wunderground v.1.15,2013-05-18 17:46:00,
2013-05-18 12:48:00,75.7,64.4,29.75,SE,145,8.0,11.0,68,0.00,,,0.00,Wunderground v.1.15,2013-05-18 17:48:00,
2013-05-18 12:50:00,75.8,64.9,29.75,SE,131,8.0,8.0,69,0.00,,,0.00,Wunderground v.1.15,2013-05-18 17:50:00,
2013-05-18 12:54:00,75.8,65.7,29.75,SE,136,8.0,13.0,71,0.00,,,0.00,Wunderground v.1.15,2013-05-18 17:54:00,
2013-05-18 12:56:00,75.7,64.8,29.75,SSE,148,9.0,13.0,69,0.00,,,0.00,Wunderground v.1.15,2013-05-18 17:56:00,
2013-05-18 12:58:00,75.8,64.1,29.75,SE,142,9.0,13.0,67,0.00,,,0.00,Wunderground v.1.15,2013-05-18 17:58:00,
2013-05-18 13:02:00,75.9,64.2,29.74,SE,129,9.0,12.0,67,0.00,,,0.00,Wunderground v.1.15,2013-05-18 18:02:00,
2013-05-18 13:06:00,76.0,64.7,29.75,SE,141,9.0,12.0,68,0.00,,,0.00,Wunderground v.1.15,2013-05-18 18:06:00,
2013-05-18 13:08:00,76.1,64.8,29.74,SE,134,9.0,12.0,68,0.00,,,0.00,Wunderground v.1.15,2013-05-18 18:08:00,
2013-05-18 13:12:00,75.9,64.6,29.74,SE,126,9.0,12.0,68,0.00,,,0.00,Wunderground v.1.15,2013-05-18 18:12:00,
2013-05-18 13:14:00,75.9,64.2,29.74,SE,145,9.0,12.0,67,0.00,,,0.00,Wunderground v.1.15,2013-05-18 18:14:00,
2013-05-18 13:18:00,75.9,64.2,29.73,SE,139,10.0,12.0,67,0.00,,,0.00,Wunderground v.1.15,2013-05-18 18:18:00,
2013-05-18 13:22:00,75.8,63.6,29.73,SSE,152,10.0,12.0,66,0.00,,,0.00,Wunderground v.1.15,2013-05-18 18:22:00,
2013-05-18 13:24:00,75.9,64.2,29.73,SSE,148,10.0,12.0,67,0.00,,,0.00,Wunderground v.1.15,2013-05-18 18:24:00,
2013-05-18 13:26:00,76.0,64.7,29.73,SSE,163,9.0,12.0,68,0.00,,,0.00,Wunderground v.1.15,2013-05-18 18:26:00,
2013-05-18 13:28:00,76.1,64.3,29.73,SE,145,9.0,12.0,67,0.00,,,0.00,Wunderground v.1.15,2013-05-18 18:28:00,
2013-05-18 13:30:00,76.0,64.2,29.73,SSE,150,9.0,12.0,67,0.00,,,0.00,Wunderground v.1.15,2013-05-18 18:30:00,
2013-05-18 13:32:00,76.1,64.3,29.73,SE,146,9.0,12.0,67,0.00,,,0.00,Wunderground v.1.15,2013-05-18 18:32:00,
2013-05-18 13:34:00,76.1,64.8,29.73,SSE,150,9.0,12.0,68,0.00,,,0.00,Wunderground v.1.15,2013-05-18 18:34:00,
2013-05-18 13:36:00,76.1,63.5,29.73,SE,143,9.0,12.0,65,0.00,,,0.00,Wunderground v.1.15,2013-05-18 18:36:00,
2013-05-18 13:38:00,76.1,64.3,29.73,SE,140,10.0,12.0,67,0.00,,,0.00,Wunderground v.1.15,2013-05-18 18:38:00,
2013-05-18 13:40:00,76.3,64.1,29.73,ESE,111,10.0,12.0,66,0.00,,,0.00,Wunderground v.1.15,2013-05-18 18:40:00,
2013-05-18 13:42:00,76.3,64.5,29.73,SE,145,9.0,12.0,67,0.00,,,0.00,Wunderground v.1.15,2013-05-18 18:42:00,
2013-05-18 13:46:00,76.4,65.1,29.73,SE,125,9.0,12.0,68,0.00,,,0.00,Wunderground v.1.15,2013-05-18 18:46:00,
2013-05-18 13:48:00,76.3,63.7,29.73,SE,126,9.0,12.0,65,0.00,,,0.00,Wunderground v.1.15,2013-05-18 18:48:00,
2013-05-18 13:50:00,76.3,64.1,29.73,SE,136,9.0,12.0,66,0.00,,,0.00,Wunderground v.1.15,2013-05-18 18:50:00,
2013-05-18 13:56:00,76.0,64.2,29.73,SE,131,9.0,12.0,67,0.00,,,0.00,Wunderground v.1.15,2013-05-18 18:56:00,
2013-05-18 14:02:00,76.0,64.2,29.73,SSE,148,9.0,12.0,67,0.00,,,0.00,Wunderground v.1.15,2013-05-18 19:02:00,
2013-05-18 14:04:00,76.2,64.4,29.72,SE,136,8.0,12.0,67,0.00,,,0.00,Wunderground v.1.15,2013-05-18 19:04:00,
2013-05-18 14:08:00,76.4,65.1,29.72,SE,134,9.0,12.0,68,0.00,,,0.00,Wunderground v.1.15,2013-05-18 19:08:00,
2013-05-18 14:10:00,76.3,64.1,29.73,ESE,120,9.0,9.0,66,0.00,,,0.00,Wunderground v.1.15,2013-05-18 19:10:00,
2013-05-18 14:14:00,76.0,64.2,29.73,SE,145,8.0,12.0,67,0.00,,,0.00,Wunderground v.1.15,2013-05-18 19:14:00,
2013-05-18 14:16:00,76.1,64.3,29.73,SE,134,8.0,12.0,67,0.00,,,0.00,Wunderground v.1.15,2013-05-18 19:16:00,
2013-05-18 14:18:00,76.3,64.1,29.73,SE,138,8.0,12.0,66,0.00,,,0.00,Wunderground v.1.15,2013-05-18 19:18:00,
2013-05-18 14:22:00,76.3,64.5,29.73,SE,131,8.0,12.0,67,0.00,,,0.00,Wunderground v.1.15,2013-05-18 19:22:00,
2013-05-18 14:24:00,76.5,64.3,29.72,ESE,119,9.0,12.0,66,0.00,,,0.00,Wunderground v.1.15,2013-05-18 19:24:00,
2013-05-18 14:30:00,76.9,64.7,29.72,SE,146,9.0,9.0,66,0.00,,,0.00,Wunderground v.1.15,2013-05-18 19:30:00,
2013-05-18 14:32:00,77.0,63.9,29.72,SE,138,9.0,10.0,64,0.00,,,0.00,Wunderground v.1.15,2013-05-18 19:32:00,
2013-05-18 14:36:00,77.0,63.9,29.72,SE,135,9.0,12.0,64,0.00,,,0.00,Wunderground v.1.15,2013-05-18 19:36:00,
2013-05-18 14:38:00,77.1,64.4,29.71,SE,145,10.0,12.0,65,0.00,,,0.00,Wunderground v.1.15,2013-05-18 19:38:00,
2013-05-18 14:40:00,77.0,63.9,29.71,ESE,106,10.0,12.0,64,0.00,,,0.00,Wunderground v.1.15,2013-05-18 19:40:00,
2013-05-18 14:42:00,77.1,63.5,29.71,SE,139,10.0,12.0,63,0.00,,,0.00,Wunderground v.1.15,2013-05-18 19:42:00,
2013-05-18 14:44:00,77.2,64.1,29.71,SE,124,9.0,12.0,64,0.00,,,0.00,Wunderground v.1.15,2013-05-18 19:44:00,
2013-05-18 14:46:00,77.2,64.5,29.71,SE,128,10.0,12.0,65,0.00,,,0.00,Wunderground v.1.15,2013-05-18 19:46:00,
2013-05-18 14:48:00,77.1,63.5,29.71,SE,128,10.0,12.0,63,0.00,,,0.00,Wunderground v.1.15,2013-05-18 19:48:00,
2013-05-18 14:52:00,77.0,64.8,29.71,ESE,122,10.0,12.0,66,0.00,,,0.00,Wunderground v.1.15,2013-05-18 19:52:00,
2013-05-18 14:54:00,77.1,64.0,29.71,SE,141,10.0,12.0,64,0.00,,,0.00,Wunderground v.1.15,2013-05-18 19:54:00,
2013-05-18 14:56:00,77.3,64.6,29.71,SE,132,10.0,12.0,65,0.00,,,0.00,Wunderground v.1.15,2013-05-18 19:56:00,
2013-05-18 15:00:00,77.4,63.8,29.71,SE,134,10.0,12.0,63,0.00,,,0.00,Wunderground v.1.15,2013-05-18 20:00:00,
2013-05-18 15:02:00,77.5,64.4,29.71,SSE,160,10.0,12.0,64,0.00,,,0.00,Wunderground v.1.15,2013-05-18 20:02:00,
2013-05-18 15:06:00,77.7,64.1,29.71,SE,138,10.0,12.0,63,0.00,,,0.00,Wunderground v.1.15,2013-05-18 20:06:00,
2013-05-18 15:10:00,77.8,64.2,29.70,SE,128,10.0,13.0,63,0.00,,,0.00,Wunderground v.1.15,2013-05-18 20:10:00,
2013-05-18 15:12:00,77.6,64.0,29.70,SE,135,10.0,13.0,63,0.00,,,0.00,Wunderground v.1.15,2013-05-18 20:12:00,
2013-05-18 15:16:00,77.4,63.4,29.70,SSE,148,10.0,13.0,62,0.00,,,0.00,Wunderground v.1.15,2013-05-18 20:16:00,
2013-05-18 15:18:00,77.4,63.8,29.70,ESE,122,10.0,13.0,63,0.00,,,0.00,Wunderground v.1.15,2013-05-18 20:18:00,
2013-05-18 15:22:00,77.5,64.4,29.70,SSE,151,9.0,12.0,64,0.00,,,0.00,Wunderground v.1.15,2013-05-18 20:22:00,
2013-05-18 15:24:00,77.6,64.0,29.70,SE,138,9.0,12.0,63,0.00,,,0.00,Wunderground v.1.15,2013-05-18 20:24:00,
2013-05-18 15:30:00,77.8,64.2,29.70,SE,134,8.0,12.0,63,0.00,,,0.00,Wunderground v.1.15,2013-05-18 20:30:00,
2013-05-18 15:32:00,77.9,64.7,29.70,ESE,118,9.0,12.0,64,0.00,,,0.00,Wunderground v.1.15,2013-05-18 20:32:00,
2013-05-18 15:38:00,78.0,63.9,29.69,SE,135,9.0,12.0,62,0.00,,,0.00,Wunderground v.1.15,2013-05-18 20:38:00,
2013-05-18 15:42:00,78.0,64.4,29.69,SE,135,9.0,12.0,63,0.00,,,0.00,Wunderground v.1.15,2013-05-18 20:42:00,
2013-05-18 15:44:00,77.9,64.3,29.69,SE,145,9.0,12.0,63,0.00,,,0.00,Wunderground v.1.15,2013-05-18 20:44:00,
2013-05-18 15:46:00,77.8,64.2,29.69,SSE,156,9.0,12.0,63,0.00,,,0.00,Wunderground v.1.15,2013-05-18 20:46:00,
2013-05-18 15:48:00,78.0,65.3,29.69,SE,128,9.0,12.0,65,0.00,,,0.00,Wunderground v.1.15,2013-05-18 20:48:00,
2013-05-18 15:50:00,78.2,65.0,29.70,SE,135,8.0,8.0,64,0.00,,,0.00,Wunderground v.1.15,2013-05-18 20:50:00,
2013-05-18 15:54:00,78.4,63.8,29.69,SE,139,8.0,12.0,61,0.00,,,0.00,Wunderground v.1.15,2013-05-18 20:54:00,
2013-05-18 15:56:00,78.4,63.4,29.69,SE,128,8.0,12.0,60,0.00,,,0.00,Wunderground v.1.15,2013-05-18 20:56:00,
2013-05-18 16:00:00,78.2,64.1,29.69,ESE,116,9.0,9.0,62,0.00,,,0.00,Wunderground v.1.15,2013-05-18 21:00:00,
2013-05-18 16:06:00,78.1,64.5,29.69,SE,136,9.0,12.0,63,0.00,,,0.00,Wunderground v.1.15,2013-05-18 21:06:00,
2013-05-18 16:10:00,78.1,63.6,29.69,SE,125,9.0,12.0,61,0.00,,,0.00,Wunderground v.1.15,2013-05-18 21:10:00,
2013-05-18 16:12:00,78.2,63.2,29.69,SE,136,9.0,12.0,60,0.00,,,0.00,Wunderground v.1.15,2013-05-18 21:12:00,
2013-05-18 16:16:00,78.5,63.9,29.69,SE,128,9.0,12.0,61,0.00,,,0.00,Wunderground v.1.15,2013-05-18 21:16:00,
2013-05-18 16:18:00,78.6,63.6,29.69,SE,136,8.0,12.0,60,0.00,,,0.00,Wunderground v.1.15,2013-05-18 21:18:00,
2013-05-18 16:22:00,78.9,64.8,29.69,SE,134,8.0,12.0,62,0.00,,,0.00,Wunderground v.1.15,2013-05-18 21:22:00,
2013-05-18 16:24:00,79.1,64.5,29.69,SE,128,8.0,12.0,61,0.00,,,0.00,Wunderground v.1.15,2013-05-18 21:24:00,
2013-05-18 16:28:00,79.6,65.0,29.69,SSE,150,8.0,12.0,61,0.00,,,0.00,Wunderground v.1.15,2013-05-18 21:28:00,
2013-05-18 16:30:00,79.8,64.7,29.68,SE,138,8.0,12.0,60,0.00,,,0.00,Wunderground v.1.15,2013-05-18 21:30:00,
2013-05-18 16:32:00,79.8,63.7,29.68,SE,132,8.0,12.0,58,0.00,,,0.00,Wunderground v.1.15,2013-05-18 21:32:00,
2013-05-18 16:36:00,79.6,64.5,29.69,SE,145,9.0,12.0,60,0.00,,,0.00,Wunderground v.1.15,2013-05-18 21:36:00,
2013-05-18 16:38:00,79.4,63.3,29.69,SE,139,9.0,12.0,58,0.00,,,0.00,Wunderground v.1.15,2013-05-18 21:38:00,
2013-05-18 16:40:00,79.2,64.6,29.68,SE,128,9.0,12.0,61,0.00,,,0.00,Wunderground v.1.15,2013-05-18 21:40:00,
2013-05-18 16:42:00,78.9,63.8,29.68,SE,128,9.0,12.0,60,0.00,,,0.00,Wunderground v.1.15,2013-05-18 21:42:00,
2013-05-18 16:46:00,79.1,65.0,29.69,SE,134,9.0,12.0,62,0.00,,,0.00,Wunderground v.1.15,2013-05-18 21:46:00,
2013-05-18 16:48:00,79.2,64.1,29.69,SE,125,8.0,12.0,60,0.00,,,0.00,Wunderground v.1.15,2013-05-18 21:48:00,
2013-05-18 16:52:00,79.1,64.0,29.69,SE,145,8.0,12.0,60,0.00,,,0.00,Wunderground v.1.15,2013-05-18 21:52:00,
2013-05-18 16:54:00,79.1,64.0,29.69,SSE,148,8.0,12.0,60,0.00,,,0.00,Wunderground v.1.15,2013-05-18 21:54:00,
2013-05-18 16:58:00,79.0,63.4,29.69,SSE,163,8.0,12.0,59,0.00,,,0.00,Wunderground v.1.15,2013-05-18 21:58:00,
2013-05-18 17:00:00,79.2,63.1,29.69,ESE,122,8.0,12.0,58,0.00,,,0.00,Wunderground v.1.15,2013-05-18 22:00:00,
2013-05-18 17:04:00,79.4,63.8,29.69,SE,136,9.0,12.0,59,0.00,,,0.00,Wunderground v.1.15,2013-05-18 22:04:00,
2013-05-18 17:06:00,79.5,63.4,29.69,ESE,115,10.0,14.0,58,0.00,,,0.00,Wunderground v.1.15,2013-05-18 22:06:00,
2013-05-18 17:08:00,79.4,63.3,29.69,SSE,152,10.0,14.0,58,0.00,,,0.00,Wunderground v.1.15,2013-05-18 22:08:00,
2013-05-18 17:10:00,79.2,63.1,29.69,SSE,166,11.0,11.0,58,0.00,,,0.00,Wunderground v.1.15,2013-05-18 22:10:00,
2013-05-18 17:12:00,79.0,63.4,29.69,SE,145,10.0,12.0,59,0.00,,,0.00,Wunderground v.1.15,2013-05-18 22:12:00,
2013-05-18 17:14:00,79.0,63.4,29.69,SE,142,10.0,12.0,59,0.00,,,0.00,Wunderground v.1.15,2013-05-18 22:14:00,
2013-05-18 17:16:00,79.0,63.4,29.69,SSE,152,10.0,13.0,59,0.00,,,0.00,Wunderground v.1.15,2013-05-18 22:16:00,
2013-05-18 17:20:00,79.4,63.3,29.69,SE,125,10.0,13.0,58,0.00,,,0.00,Wunderground v.1.15,2013-05-18 22:20:00,
2013-05-18 17:22:00,79.3,63.7,29.69,SE,136,10.0,13.0,59,0.00,,,0.00,Wunderground v.1.15,2013-05-18 22:22:00,
2013-05-18 17:24:00,79.3,63.2,29.69,South,172,10.0,13.0,58,0.00,,,0.00,Wunderground v.1.15,2013-05-18 22:24:00,
2013-05-18 17:28:00,79.6,64.0,29.69,SSE,151,10.0,13.0,59,0.00,,,0.00,Wunderground v.1.15,2013-05-18 22:28:00,
2013-05-18 17:30:00,79.7,63.1,29.69,SSE,162,9.0,9.0,57,0.00,,,0.00,Wunderground v.1.15,2013-05-18 22:30:00,
2013-05-18 17:36:00,79.4,63.3,29.69,SE,132,8.0,12.0,58,0.00,,,0.00,Wunderground v.1.15,2013-05-18 22:36:00,
2013-05-18 17:42:00,79.7,63.6,29.69,SSE,148,8.0,9.0,58,0.00,,,0.00,Wunderground v.1.15,2013-05-18 22:42:00,
2013-05-18 17:44:00,79.7,63.6,29.69,SE,139,8.0,12.0,58,0.00,,,0.00,Wunderground v.1.15,2013-05-18 22:44:00,
2013-05-18 17:46:00,79.6,63.5,29.69,SSE,163,8.0,12.0,58,0.00,,,0.00,Wunderground v.1.15,2013-05-18 22:46:00,
2013-05-18 17:48:00,79.7,64.1,29.69,ESE,115,7.0,12.0,59,0.00,,,0.00,Wunderground v.1.15,2013-05-18 22:48:00,
2013-05-18 17:50:00,79.7,63.1,29.69,SSE,151,7.0,7.0,57,0.00,,,0.00,Wunderground v.1.15,2013-05-18 22:50:00,
2013-05-18 17:52:00,79.7,63.6,29.69,SE,135,7.0,12.0,58,0.00,,,0.00,Wunderground v.1.15,2013-05-18 22:52:00,
2013-05-18 17:54:00,79.7,63.6,29.69,SE,142,7.0,12.0,58,0.00,,,0.00,Wunderground v.1.15,2013-05-18 22:54:00,
2013-05-18 17:56:00,79.6,63.0,29.69,SE,128,8.0,12.0,57,0.00,,,0.00,Wunderground v.1.15,2013-05-18 22:56:00,
2013-05-18 18:00:00,79.4,63.3,29.69,SE,135,9.0,12.0,58,0.00,,,0.00,Wunderground v.1.15,2013-05-18 23:00:00,
2013-05-18 18:02:00,79.2,63.1,29.68,SE,138,9.0,12.0,58,0.00,,,0.00,Wunderground v.1.15,2013-05-18 23:02:00,
2013-05-18 18:04:00,79.0,63.4,29.68,ESE,120,9.0,12.0,59,0.00,,,0.00,Wunderground v.1.15,2013-05-18 23:04:00,
2013-05-18 18:06:00,78.9,63.4,29.68,SE,135,9.0,12.0,59,0.00,,,0.00,Wunderground v.1.15,2013-05-18 23:06:00,
2013-05-18 18:08:00,78.9,63.8,29.68,SE,135,9.0,12.0,60,0.00,,,0.00,Wunderground v.1.15,2013-05-18 23:08:00,
2013-05-18 18:12:00,78.7,63.2,29.68,SE,142,8.0,12.0,59,0.00,,,0.00,Wunderground v.1.15,2013-05-18 23:12:00,
2013-05-18 18:14:00,78.8,63.3,29.68,SE,145,9.0,12.0,59,0.00,,,0.00,Wunderground v.1.15,2013-05-18 23:14:00,
2013-05-18 18:16:00,78.9,63.4,29.68,SE,145,9.0,12.0,59,0.00,,,0.00,Wunderground v.1.15,2013-05-18 23:16:00,
2013-05-18 18:20:00,78.8,63.7,29.68,SSE,148,9.0,9.0,60,0.00,,,0.00,Wunderground v.1.15,2013-05-18 23:20:00,
2013-05-18 18:26:00,78.7,64.1,29.68,SSE,160,7.0,12.0,61,0.00,,,0.00,Wunderground v.1.15,2013-05-18 23:26:00,
2013-05-18 18:28:00,78.6,63.6,29.68,SSE,156,7.0,12.0,60,0.00,,,0.00,Wunderground v.1.15,2013-05-18 23:28:00,
2013-05-18 18:32:00,78.8,63.7,29.68,ESE,122,6.0,9.0,60,0.00,,,0.00,Wunderground v.1.15,2013-05-18 23:32:00,
2013-05-18 18:34:00,78.8,63.7,29.67,SSE,152,6.0,12.0,60,0.00,,,0.00,Wunderground v.1.15,2013-05-18 23:34:00,
2013-05-18 18:36:00,78.9,64.3,29.67,SE,142,6.0,12.0,61,0.00,,,0.00,Wunderground v.1.15,2013-05-18 23:36:00,
2013-05-18 18:38:00,78.8,63.7,29.67,SE,140,7.0,12.0,60,0.00,,,0.00,Wunderground v.1.15,2013-05-18 23:38:00,
2013-05-18 18:42:00,78.8,64.7,29.67,SE,135,7.0,12.0,62,0.00,,,0.00,Wunderground v.1.15,2013-05-18 23:42:00,
2013-05-18 18:44:00,78.6,64.0,29.67,ESE,115,7.0,12.0,61,0.00,,,0.00,Wunderground v.1.15,2013-05-18 23:44:00,
2013-05-18 18:46:00,78.5,63.9,29.67,SE,139,7.0,12.0,61,0.00,,,0.00,Wunderground v.1.15,2013-05-18 23:46:00,
2013-05-18 18:50:00,78.7,63.6,29.67,SE,136,7.0,12.0,60,0.00,,,0.00,Wunderground v.1.15,2013-05-18 23:50:00,
2013-05-18 18:52:00,78.7,64.1,29.67,SE,134,7.0,12.0,61,0.00,,,0.00,Wunderground v.1.15,2013-05-18 23:52:00,
2013-05-18 18:56:00,78.4,63.4,29.67,SE,138,7.0,12.0,60,0.00,,,0.00,Wunderground v.1.15,2013-05-18 23:56:00,
2013-05-18 18:58:00,78.4,63.8,29.67,SE,135,7.0,12.0,61,0.00,,,0.00,Wunderground v.1.15,2013-05-18 23:58:00,
2013-05-18 19:02:00,78.2,64.1,29.67,ESE,117,7.0,12.0,62,0.00,,,0.00,Wunderground v.1.15,2013-05-19 00:02:00,
2013-05-18 19:04:00,78.2,64.1,29.66,SE,145,6.0,12.0,62,0.00,,,0.00,Wunderground v.1.15,2013-05-19 00:04:00,
2013-05-18 19:08:00,78.2,64.1,29.66,SE,134,6.0,12.0,62,0.00,,,0.00,Wunderground v.1.15,2013-05-19 00:08:00,
2013-05-18 19:10:00,78.2,64.1,29.66,SE,145,6.0,12.0,62,0.00,,,0.00,Wunderground v.1.15,2013-05-19 00:10:00,
2013-05-18 19:12:00,78.2,64.1,29.66,SE,126,6.0,12.0,62,0.00,,,0.00,Wunderground v.1.15,2013-05-19 00:12:00,
2013-05-18 19:16:00,78.1,64.5,29.66,SSE,150,6.0,12.0,63,0.00,,,0.00,Wunderground v.1.15,2013-05-19 00:16:00,
2013-05-18 19:18:00,78.1,64.5,29.66,SE,136,6.0,12.0,63,0.00,,,0.00,Wunderground v.1.15,2013-05-19 00:18:00,
2013-05-18 19:20:00,77.9,64.3,29.66,SE,125,6.0,12.0,63,0.00,,,0.00,Wunderground v.1.15,2013-05-19 00:20:00,
2013-05-18 19:22:00,77.8,64.6,29.66,SE,131,6.0,12.0,64,0.00,,,0.00,Wunderground v.1.15,2013-05-19 00:22:00,
2013-05-18 19:24:00,77.7,64.5,29.66,SE,126,6.0,12.0,64,0.00,,,0.00,Wunderground v.1.15,2013-05-19 00:24:00,
2013-05-18 19:28:00,77.4,64.7,29.65,ESE,123,6.0,12.0,65,0.00,,,0.00,Wunderground v.1.15,2013-05-19 00:28:00,
2013-05-18 19:30:00,77.2,64.5,29.65,SE,143,6.0,12.0,65,0.00,,,0.00,Wunderground v.1.15,2013-05-19 00:30:00,
2013-05-18 19:32:00,77.2,64.5,29.65,ESE,120,6.0,12.0,65,0.00,,,0.00,Wunderground v.1.15,2013-05-19 00:32:00,
2013-05-18 19:34:00,77.2,65.0,29.65,ESE,121,6.0,12.0,66,0.00,,,0.00,Wunderground v.1.15,2013-05-19 00:34:00,
2013-05-18 19:36:00,77.0,64.8,29.65,SE,134,6.0,12.0,66,0.00,,,0.00,Wunderground v.1.15,2013-05-19 00:36:00,
2013-05-18 19:38:00,76.9,64.7,29.65,SE,136,6.0,12.0,66,0.00,,,0.00,Wunderground v.1.15,2013-05-19 00:38:00,
2013-05-18 19:40:00,76.7,64.9,29.65,ESE,122,6.0,12.0,67,0.00,,,0.00,Wunderground v.1.15,2013-05-19 00:40:00,
2013-05-18 19:42:00,76.5,65.1,29.65,SE,135,5.0,12.0,68,0.00,,,0.00,Wunderground v.1.15,2013-05-19 00:42:00,
2013-05-18 19:46:00,76.3,65.0,29.64,SE,136,5.0,12.0,68,0.00,,,0.00,Wunderground v.1.15,2013-05-19 00:46:00,
2013-05-18 19:48:00,76.2,64.9,29.64,SE,142,5.0,12.0,68,0.00,,,0.00,Wunderground v.1.15,2013-05-19 00:48:00,
2013-05-18 19:52:00,76.1,65.2,29.64,SE,134,5.0,12.0,69,0.00,,,0.00,Wunderground v.1.15,2013-05-19 00:52:00,
2013-05-18 19:54:00,76.2,65.3,29.64,SE,141,5.0,12.0,69,0.00,,,0.00,Wunderground v.1.15,2013-05-19 00:54:00,
2013-05-18 19:56:00,76.2,65.3,29.64,SE,145,5.0,12.0,69,0.00,,,0.00,Wunderground v.1.15,2013-05-19 00:56:00,
2013-05-18 19:58:00,76.2,65.3,29.64,SE,132,5.0,12.0,69,0.00,,,0.00,Wunderground v.1.15,2013-05-19 00:58:00,
2013-05-18 20:04:00,76.5,65.1,29.64,SE,135,4.0,12.0,68,0.00,,,0.00,Wunderground v.1.15,2013-05-19 01:04:00,
2013-05-18 20:06:00,76.6,65.2,29.64,SE,131,4.0,12.0,68,0.00,,,0.00,Wunderground v.1.15,2013-05-19 01:06:00,
2013-05-18 20:08:00,76.6,65.2,29.63,SE,134,4.0,12.0,68,0.00,,,0.00,Wunderground v.1.15,2013-05-19 01:08:00,
2013-05-18 20:12:00,76.4,65.9,29.63,SE,134,3.0,12.0,70,0.00,,,0.00,Wunderground v.1.15,2013-05-19 01:12:00,
2013-05-18 20:14:00,76.3,65.8,29.63,ESE,120,3.0,12.0,70,0.00,,,0.00,Wunderground v.1.15,2013-05-19 01:14:00,
2013-05-18 20:16:00,76.1,66.0,29.63,SSE,158,3.0,12.0,71,0.00,,,0.00,Wunderground v.1.15,2013-05-19 01:16:00,
2013-05-18 20:22:00,75.5,65.8,29.63,SE,138,2.0,12.0,72,0.00,,,0.00,Wunderground v.1.15,2013-05-19 01:22:00,
2013-05-18 20:24:00,75.3,65.6,29.63,SE,135,3.0,12.0,72,0.00,,,0.00,Wunderground v.1.15,2013-05-19 01:24:00,
2013-05-18 20:26:00,75.2,65.6,29.63,SE,135,3.0,12.0,72,0.00,,,0.00,Wunderground v.1.15,2013-05-19 01:26:00,
2013-05-18 20:28:00,75.0,65.4,29.63,SE,134,3.0,12.0,72,0.00,,,0.00,Wunderground v.1.15,2013-05-19 01:28:00,
2013-05-18 20:30:00,74.9,65.3,29.63,SE,134,4.0,12.0,72,0.00,,,0.00,Wunderground v.1.15,2013-05-19 01:30:00,
2013-05-18 20:32:00,74.8,65.2,29.63,SE,139,4.0,12.0,72,0.00,,,0.00,Wunderground v.1.15,2013-05-19 01:32:00,
2013-05-18 20:34:00,74.7,65.5,29.63,SE,138,4.0,12.0,73,0.00,,,0.00,Wunderground v.1.15,2013-05-19 01:34:00,
2013-05-18 20:36:00,74.5,65.3,29.63,SE,131,4.0,12.0,73,0.00,,,0.00,Wunderground v.1.15,2013-05-19 01:36:00,
2013-05-18 20:40:00,74.2,65.0,29.63,SE,131,5.0,12.0,73,0.00,,,0.00,Wunderground v.1.15,2013-05-19 01:40:00,
2013-05-18 20:42:00,74.1,64.9,29.63,SE,134,5.0,12.0,73,0.00,,,0.00,Wunderground v.1.15,2013-05-19 01:42:00,
2013-05-18 20:44:00,74.0,65.2,29.63,SE,136,6.0,12.0,74,0.00,,,0.00,Wunderground v.1.15,2013-05-19 01:44:00,
2013-05-18 20:46:00,74.0,65.2,29.63,SE,141,6.0,12.0,74,0.00,,,0.00,Wunderground v.1.15,2013-05-19 01:46:00,
2013-05-18 20:52:00,73.7,64.9,29.63,SE,136,6.0,12.0,74,0.00,,,0.00,Wunderground v.1.15,2013-05-19 01:52:00,
2013-05-18 20:54:00,73.7,64.9,29.63,ESE,116,6.0,12.0,74,0.00,,,0.00,Wunderground v.1.15,2013-05-19 01:54:00,
2013-05-18 20:58:00,73.5,65.1,29.63,ESE,120,6.0,12.0,75,0.00,,,0.00,Wunderground v.1.15,2013-05-19 01:58:00,
2013-05-18 21:00:00,73.4,65.0,29.63,SE,131,6.0,12.0,75,0.00,,,0.00,Wunderground v.1.15,2013-05-19 02:00:00,
2013-05-18 21:04:00,73.3,64.9,29.63,SSE,148,6.0,12.0,75,0.00,,,0.00,Wunderground v.1.15,2013-05-19 02:04:00,
2013-05-18 21:06:00,73.2,64.8,29.63,SE,134,7.0,12.0,75,0.00,,,0.00,Wunderground v.1.15,2013-05-19 02:06:00,
2013-05-18 21:08:00,73.2,64.8,29.63,SE,131,7.0,12.0,75,0.00,,,0.00,Wunderground v.1.15,2013-05-19 02:08:00,
2013-05-18 21:12:00,73.2,64.8,29.64,SE,135,8.0,12.0,75,0.00,,,0.00,Wunderground v.1.15,2013-05-19 02:12:00,
2013-05-18 21:14:00,73.3,64.9,29.64,SE,136,8.0,12.0,75,0.00,,,0.00,Wunderground v.1.15,2013-05-19 02:14:00,
2013-05-18 21:20:00,73.1,64.7,29.64,SSE,151,7.0,12.0,75,0.00,,,0.00,Wunderground v.1.15,2013-05-19 02:20:00,
2013-05-18 21:24:00,73.0,64.6,29.64,SE,128,7.0,12.0,75,0.00,,,0.00,Wunderground v.1.15,2013-05-19 02:24:00,
2013-05-18 21:26:00,72.9,64.5,29.64,SE,131,8.0,12.0,75,0.00,,,0.00,Wunderground v.1.15,2013-05-19 02:26:00,
2013-05-18 21:28:00,72.8,64.8,29.64,SE,139,8.0,12.0,76,0.00,,,0.00,Wunderground v.1.15,2013-05-19 02:28:00,
2013-05-18 21:32:00,72.6,64.6,29.64,SE,126,8.0,12.0,76,0.00,,,0.00,Wunderground v.1.15,2013-05-19 02:32:00,
2013-05-18 21:34:00,72.6,64.6,29.64,ESE,121,8.0,12.0,76,0.00,,,0.00,Wunderground v.1.15,2013-05-19 02:34:00,
2013-05-18 21:36:00,72.6,64.6,29.64,SE,135,8.0,12.0,76,0.00,,,0.00,Wunderground v.1.15,2013-05-19 02:36:00,
2013-05-18 21:38:00,72.6,64.6,29.64,SE,139,8.0,12.0,76,0.00,,,0.00,Wunderground v.1.15,2013-05-19 02:38:00,
2013-05-18 21:42:00,72.5,64.5,29.64,SE,131,8.0,12.0,76,0.00,,,0.00,Wunderground v.1.15,2013-05-19 02:42:00,
2013-05-18 21:44:00,72.4,64.8,29.64,SSE,148,8.0,12.0,77,0.00,,,0.00,Wunderground v.1.15,2013-05-19 02:44:00,
2013-05-18 21:46:00,72.3,64.7,29.64,SE,128,8.0,12.0,77,0.00,,,0.00,Wunderground v.1.15,2013-05-19 02:46:00,
2013-05-18 21:48:00,72.3,64.7,29.64,SE,136,9.0,12.0,77,0.00,,,0.00,Wunderground v.1.15,2013-05-19 02:48:00,
2013-05-18 21:52:00,72.2,64.6,29.64,SE,134,9.0,12.0,77,0.00,,,0.00,Wunderground v.1.15,2013-05-19 02:52:00,
2013-05-18 21:54:00,72.2,64.6,29.63,ESE,112,9.0,12.0,77,0.00,,,0.00,Wunderground v.1.15,2013-05-19 02:54:00,
2013-05-18 21:56:00,72.3,64.7,29.63,SE,135,9.0,12.0,77,0.00,,,0.00,Wunderground v.1.15,2013-05-19 02:56:00,
2013-05-18 22:00:00,72.2,64.6,29.63,SE,140,9.0,9.0,77,0.00,,,0.00,Wunderground v.1.15,2013-05-19 03:00:00,
2013-05-18 22:02:00,72.2,64.2,29.63,SE,135,9.0,12.0,76,0.00,,,0.00,Wunderground v.1.15,2013-05-19 03:02:00,
2013-05-18 22:04:00,72.3,64.3,29.63,SE,134,9.0,12.0,76,0.00,,,0.00,Wunderground v.1.15,2013-05-19 03:04:00,
2013-05-18 22:06:00,72.3,64.7,29.63,ESE,113,8.0,12.0,77,0.00,,,0.00,Wunderground v.1.15,2013-05-19 03:06:00,
2013-05-18 22:12:00,72.2,64.6,29.63,SE,142,9.0,12.0,77,0.00,,,0.00,Wunderground v.1.15,2013-05-19 03:12:00,
2013-05-18 22:14:00,72.1,64.5,29.63,SE,135,8.0,12.0,77,0.00,,,0.00,Wunderground v.1.15,2013-05-19 03:14:00,
2013-05-18 22:16:00,72.0,64.4,29.63,SE,129,8.0,12.0,77,0.00,,,0.00,Wunderground v.1.15,2013-05-19 03:16:00,
2013-05-18 22:18:00,72.0,64.4,29.63,ESE,122,8.0,12.0,77,0.00,,,0.00,Wunderground v.1.15,2013-05-19 03:18:00,
2013-05-18 22:22:00,72.0,64.4,29.63,SE,134,8.0,12.0,77,0.00,,,0.00,Wunderground v.1.15,2013-05-19 03:22:00,
2013-05-18 22:24:00,72.0,64.4,29.63,SE,128,8.0,12.0,77,0.00,,,0.00,Wunderground v.1.15,2013-05-19 03:24:00,
2013-05-18 22:26:00,71.9,64.3,29.63,SE,131,8.0,12.0,77,0.00,,,0.00,Wunderground v.1.15,2013-05-19 03:26:00,
2013-05-18 22:30:00,71.7,64.1,29.62,ESE,122,8.0,12.0,77,0.00,,,0.00,Wunderground v.1.15,2013-05-19 03:30:00,
2013-05-18 22:34:00,71.7,64.1,29.62,SE,124,7.0,12.0,77,0.00,,,0.00,Wunderground v.1.15,2013-05-19 03:34:00,
2013-05-18 22:36:00,71.6,64.4,29.62,SE,126,7.0,12.0,78,0.00,,,0.00,Wunderground v.1.15,2013-05-19 03:36:00,
2013-05-18 22:40:00,71.2,64.4,29.63,SE,133,7.0,7.0,79,0.00,,,0.00,Wunderground v.1.15,2013-05-19 03:40:00,
2013-05-18 22:42:00,71.0,64.2,29.63,SE,132,7.0,12.0,79,0.00,,,0.00,Wunderground v.1.15,2013-05-19 03:42:00,
2013-05-18 22:46:00,70.5,64.0,29.63,ESE,123,6.0,12.0,80,0.00,,,0.00,Wunderground v.1.15,2013-05-19 03:46:00,
2013-05-18 22:50:00,70.3,64.2,29.62,SE,134,7.0,7.0,81,0.00,,,0.00,Wunderground v.1.15,2013-05-19 03:50:00,
2013-05-18 22:54:00,70.3,64.2,29.62,SE,139,7.0,12.0,81,0.00,,,0.00,Wunderground v.1.15,2013-05-19 03:54:00,
2013-05-18 22:56:00,70.3,64.2,29.62,SE,135,7.0,12.0,81,0.00,,,0.00,Wunderground v.1.15,2013-05-19 03:56:00,
2013-05-18 23:00:00,70.3,64.2,29.62,SE,138,7.0,12.0,81,0.00,,,0.00,Wunderground v.1.15,2013-05-19 04:00:00,
2013-05-18 23:02:00,70.3,64.2,29.61,SE,135,7.0,12.0,81,0.00,,,0.00,Wunderground v.1.15,2013-05-19 04:02:00,
2013-05-18 23:04:00,70.3,64.2,29.61,SE,125,7.0,12.0,81,0.00,,,0.00,Wunderground v.1.15,2013-05-19 04:04:00,
2013-05-18 23:06:00,70.3,64.2,29.61,SE,132,7.0,12.0,81,0.00,,,0.00,Wunderground v.1.15,2013-05-19 04:06:00,
2013-05-18 23:10:00,70.3,64.2,29.62,ESE,121,7.0,12.0,81,0.00,,,0.00,Wunderground v.1.15,2013-05-19 04:10:00,
2013-05-18 23:12:00,70.3,64.2,29.62,SE,131,7.0,12.0,81,0.00,,,0.00,Wunderground v.1.15,2013-05-19 04:12:00,
2013-05-18 23:16:00,70.3,64.2,29.61,SE,134,8.0,12.0,81,0.00,,,0.00,Wunderground v.1.15,2013-05-19 04:16:00,
2013-05-18 23:18:00,70.3,64.2,29.61,SE,128,8.0,12.0,81,0.00,,,0.00,Wunderground v.1.15,2013-05-19 04:18:00,
2013-05-18 23:20:00,70.3,64.2,29.61,SE,134,8.0,8.0,81,0.00,,,0.00,Wunderground v.1.15,2013-05-19 04:20:00,
2013-05-18 23:22:00,70.3,64.2,29.61,SE,138,8.0,9.0,81,0.00,,,0.00,Wunderground v.1.15,2013-05-19 04:22:00,
2013-05-18 23:26:00,70.4,64.3,29.61,SE,136,8.0,12.0,81,0.00,,,0.00,Wunderground v.1.15,2013-05-19 04:26:00,
2013-05-18 23:28:00,70.4,64.3,29.61,SE,134,8.0,12.0,81,0.00,,,0.00,Wunderground v.1.15,2013-05-19 04:28:00,
2013-05-18 23:30:00,70.4,64.3,29.61,SE,139,9.0,12.0,81,0.00,,,0.00,Wunderground v.1.15,2013-05-19 04:30:00,
2013-05-18 23:32:00,70.5,64.0,29.61,SE,129,9.0,12.0,80,0.00,,,0.00,Wunderground v.1.15,2013-05-19 04:32:00,
2013-05-18 23:36:00,70.5,64.4,29.61,SE,134,9.0,12.0,81,0.00,,,0.00,Wunderground v.1.15,2013-05-19 04:36:00,
2013-05-18 23:38:00,70.4,64.3,29.61,SE,125,9.0,12.0,81,0.00,,,0.00,Wunderground v.1.15,2013-05-19 04:38:00,
2013-05-18 23:40:00,70.4,64.3,29.61,SSE,150,9.0,12.0,81,0.00,,,0.00,Wunderground v.1.15,2013-05-19 04:40:00,
2013-05-18 23:46:00,70.3,64.2,29.61,SE,135,9.0,12.0,81,0.00,,,0.00,Wunderground v.1.15,2013-05-19 04:46:00,
2013-05-18 23:48:00,70.2,64.1,29.62,SE,136,9.0,12.0,81,0.00,,,0.00,Wunderground v.1.15,2013-05-19 04:48:00,
2013-05-18 23:50:00,70.1,64.0,29.62,SE,145,8.0,8.0,81,0.00,,,0.00,Wunderground v.1.15,2013-05-19 04:50:00,
2013-05-18 23:54:00,70.1,64.0,29.62,SE,131,8.0,12.0,81,0.00,,,0.00,Wunderground v.1.15,2013-05-19 04:54:00,
2013-05-18 23:56:00,70.1,64.0,29.62,SE,127,8.0,12.0,81,0.00,,,0.00,Wunderground v.1.15,2013-05-19 04:56:00,
2013-05-18 23:58:00,70.1,64.3,29.62,SE,128,8.0,12.0,82,0.00,,,0.00,Wunderground v.1.15,2013-05-19 04:58:00,